Flag for Switzerland Weather past 2 weeks in Worb, Bern, Switzerland

Now
45 °F

Mostly cloudy.


Feels Like: 45 °F
Forecast: 45 / 50 °F
Wind: 2 mph from North

Location: Bern / Belp

Current Time: Mar 29, 2015 at 3:48:25 AM

Latest Report: Mar 29, 2015 at 3:20 AM


Visibility: N/A

Pressure: 30.09 "Hg

Humidity: 93%

Dew point: 43 °F

Location of WorbLocation

Historic Weather in Worb — Graph

°F

Worb temperature yesterday

Maximum temperature yesterday: 54 °F (at 12:50 PM)
Minimum temperature yesterday: 28 °F (at 3:20 AM)
Average temperature yesterday: 42 °F

Past Weeks' High & Low Weather Summary

 TemperatureHumidityPressure
High64 °F (Mar 18, 2:20 PM)100% (Mar 14, 2:20 AM)30.27 "Hg (Mar 14, 2:20 AM)
Low25 °F (Mar 15, 5:20 AM)31% (Mar 17, 1:50 PM)29.59 "Hg (Mar 25, 11:50 AM)
Average43 °F77%30.02 "Hg
* Reported Mar 14 1:20 AM — Mar 29 1:20 AM, Worb, Weather by CustomWeather, © 2015

Note: Actual official high and low records may vary slightly from our data, if they occured in-between our weather recording intervals... More about our weather records

Advertising

Worb weather history for previous 24 hours

 ConditionsComfort  
Time TempWeatherWind HumidityBarometerVisibility
1:20 AM
Sun, Mar 29
45 °FPassing clouds.3 mph87%30.09 "HgN/A
12:50 AM45 °FPartly cloudy.1 mph87%30.12 "HgN/A
12:20 AM45 °FMostly cloudy.1 mph87%30.12 "HgN/A
11:50 PM
Sat, Mar 28
45 °FOvercast.3 mph87%30.09 "HgN/A
11:20 PM45 °FPassing clouds.7 mph87%30.12 "HgN/A
10:50 PM45 °FPartly cloudy.10 mph87%30.12 "HgN/A
10:20 PM45 °FOvercast.8 mph93%30.15 "HgN/A
9:50 PM45 °FSprinkles. Partly cloudy.3 mph93%30.15 "HgN/A
9:20 PM46 °FPartly cloudy.5 mph82%30.15 "HgN/A
8:50 PM48 °FMostly cloudy.3 mph71%30.15 "HgN/A
8:20 PM48 °FPartly cloudy.2 mph71%30.15 "HgN/A
7:50 PM48 °FPassing clouds.3 mph62%30.12 "HgN/A
7:20 PM48 °FPassing clouds.2 mph66%30.12 "HgN/A
6:50 PM50 °FOvercast.2 mph54%30.12 "HgN/A
6:20 PM50 °FPartly sunny.1 mph54%30.12 "HgN/A
5:50 PM50 °FOvercast.3 mph50%30.12 "HgN/A
5:20 PM50 °FSprinkles. Partly sunny.5 mph50%30.12 "HgN/A
4:50 PM50 °FLight rain. Partly sunny.8 mph62%30.12 "HgN/A
4:20 PM52 °FPartly sunny.8 mph54%30.12 "HgN/A
3:50 PM54 °FPartly sunny.12 mph44%30.09 "HgN/A
3:20 PM54 °FPartly sunny.8 mph44%30.09 "HgN/A
2:50 PM54 °FBroken clouds.8 mph41%30.09 "HgN/A
2:20 PM54 °FBroken clouds.9 mph44%30.12 "HgN/A
1:50 PM54 °FPartly sunny.8 mph44%30.12 "HgN/A
1:20 PM54 °FPartly sunny.8 mph44%30.15 "HgN/A
12:50 PM54 °FScattered clouds.8 mph41%30.15 "HgN/A
12:20 PM50 °FSunny.5 mph54%30.15 "Hg10 mi
11:50 AM50 °FPassing clouds.8 mph58%30.18 "HgN/A
11:20 AM48 °FSunny.2 mph54%30.18 "Hg10 mi
10:50 AM48 °FSunny.2 mph54%30.18 "Hg10 mi
10:20 AM46 °FSunny.2 mph57%30.21 "Hg10 mi
9:50 AM45 °FPassing clouds.6 mph61%30.21 "HgN/A
9:20 AM43 °FPassing clouds.6 mph66%30.21 "HgN/A
8:50 AM41 °FPassing clouds.5 mph76%30.21 "HgN/A
8:20 AM37 °FSunny.1 mph81%30.21 "Hg10 mi
7:50 AM34 °FSunny.1 mph93%30.24 "Hg10 mi
7:20 AM32 °FSunny.No wind93%30.24 "Hg10 mi
6:50 AM28 °FSunny.3 mph100%30.24 "Hg10 mi
6:20 AM28 °FSunny.6 mph100%30.24 "Hg10 mi
5:50 AM28 °FClear.2 mph100%30.24 "Hg10 mi
5:20 AM28 °FClear.3 mph100%30.24 "Hg10 mi
4:20 AM28 °FClear.1 mph100%30.24 "Hg10 mi
3:50 AM28 °FClear.1 mph93%30.24 "Hg10 mi
3:20 AM28 °FClear.2 mph93%30.24 "Hg10 mi
Weather by CustomWeather, © 2015

See weather overviewHow to use our weather pages